Weather History for CWYY - October, 2012

Change the Weather History Date:

Tuesday, October 9, 2012

  Actual Average Record
Temperature  
Mean Temperature 56 °F -  
Max Temperature 73 °F - - ()
Min Temperature 40 °F - - ()
Degree Days  
Heating Degree Days 8    
Growing Degree Days 6 (Base 50)    
Moisture  
Dew Point 41 °F    
Average Humidity 68    
Maximum Humidity 95    
Minimum Humidity 20    
Precipitation  
Precipitation 0.00 in - - ()
Sea Level Pressure  
Sea Level Pressure 30.02 in    
Wind  
Wind Speed 2 mph ()    
Max Wind Speed 5 mph    
Max Gust Speed -    
T = Trace of Precipitation, MM = Missing Value Source: Averaged Metar Reports

Daily Weather History Graph

Daily Weather History Graph

Search for Another Location

Airport or City:

Trip Planner

Search our weather history database for the weather conditions in past years. The results will help you decide how hot, cold, wet, or windy it might be!

Date:

Astronomy

Oct. 09, 2012 Rise Set
Actual Time 7:10 AM PDT 6:18 PM PDT
Civil Twilight 6:38 AM PDT 6:50 PM PDT
Nautical Twilight 6:01 AM PDT 7:26 PM PDT
Astronomical Twilight 5:24 AM PDT 8:03 PM PDT
Moon 12:21 AM PDT (10/9) 3:15 PM PDT (10/9)
Length of Visible Light 12h 11m
Length of Day
11h 08m
Waning Crescent, 35% of the Moon is Illuminated
Oct 9
Waning Crescent
Oct 15
New
Oct 21
First Quarter
Oct 29
Full
Nov 6
Last Quarter

Hourly Weather History & Observations

Time (PDT) Temp. Dew Point Humidity Pressure Visibility Wind Dir Wind Speed Gust Speed Precip Events Conditions
12:00 AM 52.5 °F 46.9 °F 81% 29.99 in - NE 2.3 mph - N/A   Unknown
1:00 AM 54.3 °F 43.5 °F 67% 30.00 in - NE 4.6 mph - N/A   Unknown
2:00 AM 47.3 °F 42.3 °F 83% 30.02 in - South 1.2 mph - N/A   Unknown
3:00 AM 43.7 °F 40.8 °F 90% 30.03 in - NE 2.3 mph - N/A   Unknown
4:00 AM 43.0 °F 39.7 °F 88% 30.04 in - SSE 1.2 mph - N/A   Unknown
5:00 AM 42 °F 39 °F 86% 30.05 in - Calm Calm - -  
5:00 AM 41.7 °F 39.2 °F 91% 30.05 in - Calm Calm - N/A   Unknown
6:00 AM 40.6 °F 39.0 °F 94% 30.06 in - ENE 1.2 mph - N/A   Unknown
7:00 AM 40.3 °F 39.0 °F 95% 30.08 in - ENE 1.2 mph - N/A   Unknown
8:00 AM 40.8 °F 39.6 °F 95% 30.09 in - ENE 2.3 mph - N/A   Unknown
9:00 AM 51.3 °F 43.9 °F 76% 30.10 in - NE 1.2 mph - N/A   Unknown
10:00 AM 54.3 °F 42.4 °F 64% 30.10 in - NNW 2.3 mph - N/A   Unknown
11:00 AM 59 °F 41 °F 40% 30.09 in - NNW 1.2 mph - -  
11:00 AM 58.6 °F 41.0 °F 52% 30.09 in - NNW 1.2 mph - N/A   Unknown
12:00 PM 61.9 °F 37.8 °F 41% 30.08 in - WSW 1.2 mph - N/A   Unknown
1:00 PM 65.3 °F 37.9 °F 36% 30.05 in - SW 2.3 mph - N/A   Unknown
2:00 PM 68.5 °F 39.2 °F 34% 30.02 in - NNW 2.3 mph - N/A   Unknown
3:00 PM 69.4 °F 36.9 °F 30% 29.99 in - SSW 3.5 mph - N/A   Unknown
4:00 PM 72.1 °F 39.0 °F 30% 29.97 in - East 1.2 mph - N/A   Unknown
5:00 PM 72 °F 39 °F 20% 29.96 in - WSW 2.3 mph - -  
5:00 PM 72.0 °F 39.4 °F 31% 29.96 in - WSW 2.3 mph - N/A   Unknown
6:00 PM 61.2 °F 51.6 °F 71% 29.96 in - Calm Calm - N/A   Unknown
7:00 PM 53.6 °F 47.1 °F 79% 29.96 in - NE 2.3 mph - N/A   Unknown
8:00 PM 50.4 °F 44.8 °F 81% 29.96 in - NE 2.3 mph - N/A   Unknown
9:00 PM 48.4 °F 43.5 °F 83% 29.97 in - SE 1.2 mph - N/A   Unknown
10:00 PM 45.7 °F 42.4 °F 88% 29.97 in - Calm Calm - N/A   Unknown
11:00 PM 46 °F 42 °F 80% 29.97 in - Calm Calm - -  
11:00 PM 45.9 °F 41.9 °F 86% 29.97 in - Calm Calm - N/A   Unknown